Time,TemperatureF,DewpointF,PressureIn,WindDirection,WindDirectionDegrees,WindSpeedMPH,WindSpeedGustMPH,Humidity,HourlyPrecipIn,Conditions,Clouds,dailyrainin,SoftwareType,DateUTC
2013-07-24 00:00:00,82.4,76.7,29.83,West,265,0.0,0.0,83,0.00,,---,0.00,VWS V14.01,2013-07-24 04:00:00,
2013-07-24 00:01:00,82.4,76.7,29.83,West,265,0.0,0.0,83,0.00,,---,0.00,VWS V14.01,2013-07-24 04:01:00,
2013-07-24 00:02:00,82.4,76.7,29.83,West,265,0.0,0.0,83,0.00,,---,0.00,VWS V14.01,2013-07-24 04:02:00,
2013-07-24 00:05:00,82.3,76.6,29.82,West,265,0.0,0.0,83,0.00,,---,0.00,VWS V14.01,2013-07-24 04:05:00,
2013-07-24 00:07:00,82.3,76.6,29.82,West,265,0.0,0.0,83,0.00,,---,0.00,VWS V14.01,2013-07-24 04:07:00,
2013-07-24 00:10:00,82.1,76.4,29.82,West,265,0.0,0.0,83,0.00,,---,0.00,VWS V14.01,2013-07-24 04:10:00,
2013-07-24 00:12:00,82.1,76.4,29.82,West,265,0.0,0.0,83,0.00,,---,0.00,VWS V14.01,2013-07-24 04:12:00,
2013-07-24 00:15:00,82.1,76.8,29.82,West,265,0.0,0.0,84,0.00,,---,0.00,VWS V14.01,2013-07-24 04:15:00,
2013-07-24 00:17:00,82.1,76.8,29.82,West,265,0.0,0.0,84,0.00,,---,0.00,VWS V14.01,2013-07-24 04:17:00,
2013-07-24 00:20:00,82.1,76.4,29.82,West,274,3.0,7.0,83,0.00,,---,0.00,VWS V14.01,2013-07-24 04:20:00,
2013-07-24 00:22:00,82.1,76.4,29.82,West,273,1.0,7.0,83,0.00,,---,0.00,VWS V14.01,2013-07-24 04:22:00,
2013-07-24 00:25:00,82.2,76.2,29.82,West,277,3.0,6.0,82,0.00,,---,0.00,VWS V14.01,2013-07-24 04:25:00,
2013-07-24 00:27:00,82.2,76.2,29.82,West,276,5.0,6.0,82,0.00,,---,0.00,VWS V14.01,2013-07-24 04:27:00,
2013-07-24 00:30:00,82.1,76.4,29.82,West,277,1.0,3.0,83,0.00,,---,0.00,VWS V14.01,2013-07-24 04:30:00,
2013-07-24 00:32:00,82.1,76.4,29.82,West,275,3.0,3.0,83,0.00,,---,0.00,VWS V14.01,2013-07-24 04:32:00,
2013-07-24 00:35:00,82.0,76.3,29.82,West,277,0.0,3.0,83,0.00,,---,0.00,VWS V14.01,2013-07-24 04:35:00,
2013-07-24 00:37:00,82.0,76.3,29.82,West,277,0.0,3.0,83,0.00,,---,0.00,VWS V14.01,2013-07-24 04:37:00,
2013-07-24 00:40:00,81.8,76.1,29.82,West,279,0.0,2.0,83,0.00,,---,0.00,VWS V14.01,2013-07-24 04:40:00,
2013-07-24 00:42:00,81.8,76.1,29.82,West,279,0.0,2.0,83,0.00,,---,0.00,VWS V14.01,2013-07-24 04:42:00,
2013-07-24 00:45:00,81.6,76.3,29.82,West,279,0.0,3.0,84,0.00,,---,0.00,VWS V14.01,2013-07-24 04:45:00,
2013-07-24 00:47:00,81.6,76.3,29.82,West,279,0.0,3.0,84,0.00,,---,0.00,VWS V14.01,2013-07-24 04:47:00,
2013-07-24 00:50:00,81.3,75.7,29.82,West,277,2.0,3.0,83,0.00,,---,0.00,VWS V14.01,2013-07-24 04:50:00,
2013-07-24 00:52:00,81.3,75.7,29.82,West,277,2.0,3.0,83,0.00,,---,0.00,VWS V14.01,2013-07-24 04:52:00,
2013-07-24 00:55:00,81.0,75.0,29.81,West,279,3.0,3.0,82,0.00,,---,0.00,VWS V14.01,2013-07-24 04:55:00,
2013-07-24 00:57:00,81.1,75.1,29.81,West,276,2.0,3.0,82,0.00,,---,0.00,VWS V14.01,2013-07-24 04:57:00,
2013-07-24 01:00:00,80.8,75.2,29.81,West,281,0.0,1.0,83,0.00,,---,0.00,VWS V14.01,2013-07-24 05:00:00,
2013-07-24 01:02:00,80.8,75.2,29.81,WNW,282,0.0,1.0,83,0.00,,---,0.00,VWS V14.01,2013-07-24 05:02:00,
2013-07-24 01:05:00,80.5,74.5,29.81,West,277,0.0,2.0,82,0.00,,---,0.00,VWS V14.01,2013-07-24 05:05:00,
2013-07-24 01:07:00,80.5,74.5,29.81,West,277,0.0,2.0,82,0.00,,---,0.00,VWS V14.01,2013-07-24 05:07:00,
2013-07-24 01:10:00,80.2,74.2,29.81,West,277,0.0,0.0,82,0.00,,---,0.00,VWS V14.01,2013-07-24 05:10:00,
2013-07-24 01:12:00,80.2,74.2,29.81,West,277,0.0,1.0,82,0.00,,---,0.00,VWS V14.01,2013-07-24 05:12:00,
2013-07-24 01:15:00,80.1,74.5,29.80,West,277,0.0,0.0,83,0.00,,---,0.00,VWS V14.01,2013-07-24 05:15:00,
2013-07-24 01:17:00,80.1,74.5,29.80,West,277,0.0,0.0,83,0.00,,---,0.00,VWS V14.01,2013-07-24 05:17:00,
2013-07-24 01:20:00,79.9,74.3,29.80,West,276,0.0,2.0,83,0.00,,---,0.00,VWS V14.01,2013-07-24 05:20:00,
2013-07-24 01:22:00,79.9,74.3,29.80,West,276,1.0,2.0,83,0.00,,---,0.00,VWS V14.01,2013-07-24 05:22:00,
2013-07-24 01:25:00,79.8,74.2,29.80,West,276,0.0,0.0,83,0.00,,---,0.00,VWS V14.01,2013-07-24 05:25:00,
2013-07-24 01:27:00,79.8,74.2,29.80,West,276,0.0,0.0,83,0.00,,---,0.00,VWS V14.01,2013-07-24 05:27:00,
2013-07-24 01:30:00,79.7,74.1,29.80,West,276,0.0,1.0,83,0.00,,---,0.00,VWS V14.01,2013-07-24 05:30:00,
2013-07-24 01:32:00,79.7,74.1,29.80,West,276,0.0,1.0,83,0.00,,---,0.00,VWS V14.01,2013-07-24 05:32:00,
2013-07-24 01:35:00,79.5,74.2,29.80,West,276,0.0,2.0,84,0.00,,---,0.00,VWS V14.01,2013-07-24 05:35:00,
2013-07-24 01:37:00,79.6,74.3,29.80,West,276,0.0,2.0,84,0.00,,---,0.00,VWS V14.01,2013-07-24 05:37:00,
2013-07-24 01:40:00,79.5,74.2,29.80,West,276,0.0,1.0,84,0.00,,---,0.00,VWS V14.01,2013-07-24 05:40:00,
2013-07-24 01:42:00,79.5,74.2,29.80,West,277,0.0,1.0,84,0.00,,---,0.00,VWS V14.01,2013-07-24 05:42:00,
2013-07-24 01:45:00,79.3,74.1,29.79,West,277,0.0,1.0,84,0.00,,---,0.00,VWS V14.01,2013-07-24 05:45:00,
2013-07-24 01:47:00,79.4,74.2,29.79,West,277,0.0,1.0,84,0.00,,---,0.00,VWS V14.01,2013-07-24 05:47:00,
2013-07-24 01:50:00,79.3,74.1,29.79,West,277,0.0,2.0,84,0.00,,---,0.00,VWS V14.01,2013-07-24 05:50:00,
2013-07-24 01:52:00,79.3,74.1,29.79,West,277,0.0,2.0,84,0.00,,---,0.00,VWS V14.01,2013-07-24 05:52:00,
2013-07-24 01:55:00,79.2,73.9,29.79,West,276,1.0,2.0,84,0.00,,---,0.00,VWS V14.01,2013-07-24 05:55:00,
2013-07-24 01:57:00,79.2,73.9,29.79,West,277,2.0,2.0,84,0.00,,---,0.00,VWS V14.01,2013-07-24 05:57:00,
2013-07-24 02:00:00,79.1,73.8,29.79,West,277,0.0,2.0,84,0.00,,---,0.00,VWS V14.01,2013-07-24 06:00:00,
2013-07-24 02:02:00,79.1,73.8,29.79,West,278,0.0,2.0,84,0.00,,---,0.00,VWS V14.01,2013-07-24 06:02:00,
2013-07-24 02:05:00,79.0,73.8,29.79,West,278,0.0,1.0,84,0.00,,---,0.00,VWS V14.01,2013-07-24 06:05:00,
2013-07-24 02:07:00,79.1,73.8,29.79,West,278,1.0,1.0,84,0.00,,---,0.00,VWS V14.01,2013-07-24 06:07:00,
2013-07-24 02:10:00,78.9,73.7,29.79,West,278,0.0,0.0,84,0.00,,---,0.00,VWS V14.01,2013-07-24 06:10:00,
2013-07-24 02:12:00,78.9,73.7,29.79,West,277,0.0,0.0,84,0.00,,---,0.00,VWS V14.01,2013-07-24 06:12:00,
2013-07-24 02:15:00,78.8,73.6,29.79,West,278,1.0,1.0,84,0.00,,---,0.00,VWS V14.01,2013-07-24 06:15:00,
2013-07-24 02:17:00,78.8,73.6,29.79,West,278,1.0,1.0,84,0.00,,---,0.00,VWS V14.01,2013-07-24 06:17:00,
2013-07-24 02:20:00,78.7,73.5,29.79,West,277,0.0,0.0,84,0.00,,---,0.00,VWS V14.01,2013-07-24 06:20:00,
2013-07-24 02:22:00,78.7,73.5,29.79,West,277,0.0,0.0,84,0.00,,---,0.00,VWS V14.01,2013-07-24 06:22:00,
2013-07-24 02:25:00,78.6,73.7,29.80,West,278,0.0,1.0,85,0.00,,---,0.00,VWS V14.01,2013-07-24 06:25:00,
2013-07-24 02:27:00,78.6,73.7,29.80,West,277,0.0,1.0,85,0.00,,---,0.00,VWS V14.01,2013-07-24 06:27:00,
2013-07-24 02:30:00,78.5,73.6,29.80,West,278,0.0,1.0,85,0.00,,---,0.00,VWS V14.01,2013-07-24 06:30:00,
2013-07-24 02:32:00,78.5,73.6,29.80,West,278,0.0,1.0,85,0.00,,---,0.00,VWS V14.01,2013-07-24 06:32:00,
2013-07-24 02:35:00,78.4,73.5,29.80,West,277,0.0,1.0,85,0.00,,---,0.00,VWS V14.01,2013-07-24 06:35:00,
2013-07-24 02:37:00,78.4,73.5,29.80,West,277,0.0,1.0,85,0.00,,---,0.00,VWS V14.01,2013-07-24 06:37:00,
2013-07-24 02:40:00,78.2,73.7,29.80,West,278,0.0,0.0,86,0.00,,---,0.00,VWS V14.01,2013-07-24 06:40:00,
2013-07-24 02:42:00,78.2,73.7,29.80,West,278,0.0,0.0,86,0.00,,---,0.00,VWS V14.01,2013-07-24 06:42:00,
2013-07-24 02:45:00,78.1,73.2,29.80,West,278,1.0,2.0,85,0.00,,---,0.00,VWS V14.01,2013-07-24 06:45:00,
2013-07-24 02:47:00,78.0,73.1,29.80,West,277,1.0,2.0,85,0.00,,---,0.00,VWS V14.01,2013-07-24 06:47:00,
2013-07-24 02:50:00,77.9,73.0,29.79,West,279,0.0,2.0,85,0.00,,---,0.00,VWS V14.01,2013-07-24 06:50:00,
2013-07-24 02:52:00,77.9,73.0,29.80,West,279,0.0,1.0,85,0.00,,---,0.00,VWS V14.01,2013-07-24 06:52:00,
2013-07-24 02:55:00,77.7,72.8,29.79,West,278,0.0,2.0,85,0.00,,---,0.00,VWS V14.01,2013-07-24 06:55:00,
2013-07-24 02:57:00,77.7,72.8,29.79,West,278,0.0,2.0,85,0.00,,---,0.00,VWS V14.01,2013-07-24 06:57:00,
2013-07-24 03:00:00,77.6,73.1,29.79,West,277,2.0,3.0,86,0.00,,---,0.00,VWS V14.01,2013-07-24 07:00:00,
2013-07-24 03:02:00,77.6,73.1,29.79,West,277,2.0,3.0,86,0.00,,---,0.00,VWS V14.01,2013-07-24 07:02:00,
2013-07-24 03:05:00,77.6,72.7,29.79,West,279,2.0,3.0,85,0.00,,---,0.00,VWS V14.01,2013-07-24 07:05:00,
2013-07-24 03:07:00,77.6,72.7,29.79,West,279,2.0,3.0,85,0.00,,---,0.00,VWS V14.01,2013-07-24 07:07:00,
2013-07-24 03:10:00,77.5,73.0,29.79,West,277,0.0,2.0,86,0.00,,---,0.00,VWS V14.01,2013-07-24 07:10:00,
2013-07-24 03:12:00,77.5,73.0,29.79,West,278,0.0,2.0,86,0.00,,---,0.00,VWS V14.01,2013-07-24 07:12:00,
2013-07-24 03:15:00,78.8,73.6,29.79,West,278,1.0,1.0,84,0.00,,---,0.00,VWS V15.00,2013-07-24 07:15:00,
2013-07-24 03:17:00,77.4,72.9,29.79,West,278,0.0,0.0,86,0.00,,---,0.00,VWS V14.01,2013-07-24 07:17:00,
2013-07-24 03:20:00,77.3,72.8,29.79,West,279,0.0,0.0,86,0.00,,---,0.00,VWS V14.01,2013-07-24 07:20:00,
2013-07-24 03:22:00,77.3,72.8,29.78,West,279,0.0,0.0,86,0.00,,---,0.00,VWS V14.01,2013-07-24 07:22:00,
2013-07-24 03:25:00,77.2,72.7,29.78,West,279,0.0,1.0,86,0.00,,---,0.00,VWS V14.01,2013-07-24 07:25:00,
2013-07-24 03:27:00,77.2,72.7,29.79,West,279,0.0,0.0,86,0.00,,---,0.00,VWS V14.01,2013-07-24 07:27:00,
2013-07-24 03:30:00,78.5,73.6,29.80,West,278,0.0,1.0,85,0.00,,---,0.00,VWS V15.00,2013-07-24 07:30:00,
2013-07-24 03:32:00,77.1,72.6,29.78,West,279,0.0,2.0,86,0.00,,---,0.00,VWS V14.01,2013-07-24 07:32:00,
2013-07-24 03:35:00,77.0,72.8,29.78,West,279,0.0,2.0,87,0.00,,---,0.00,VWS V14.01,2013-07-24 07:35:00,
2013-07-24 03:37:00,77.0,72.8,29.79,West,279,1.0,2.0,87,0.00,,---,0.00,VWS V14.01,2013-07-24 07:37:00,
2013-07-24 03:40:00,76.8,72.3,29.79,West,281,2.0,2.0,86,0.00,,---,0.00,VWS V14.01,2013-07-24 07:40:00,
2013-07-24 03:42:00,76.8,72.3,29.79,West,281,1.0,2.0,86,0.00,,---,0.00,VWS V14.01,2013-07-24 07:42:00,
2013-07-24 03:45:00,76.8,72.3,29.79,West,280,0.0,2.0,86,0.00,,---,0.00,VWS V14.01,2013-07-24 07:45:00,
2013-07-24 03:47:00,76.8,72.3,29.79,West,279,1.0,2.0,86,0.00,,---,0.00,VWS V14.01,2013-07-24 07:47:00,
2013-07-24 03:50:00,76.7,71.9,29.79,West,279,2.0,3.0,85,0.00,,---,0.00,VWS V14.01,2013-07-24 07:50:00,
2013-07-24 03:52:00,76.7,71.9,29.79,West,279,3.0,4.0,85,0.00,,---,0.00,VWS V14.01,2013-07-24 07:52:00,
2013-07-24 03:55:00,77.7,72.8,29.79,West,278,0.0,2.0,85,0.00,,---,0.00,VWS V15.00,2013-07-24 07:55:00,
2013-07-24 03:57:00,76.7,72.2,29.79,West,271,4.0,4.0,86,0.00,,---,0.00,VWS V14.01,2013-07-24 07:57:00,
2013-07-24 04:00:00,77.6,73.1,29.79,West,277,2.0,3.0,86,0.00,,---,0.00,VWS V15.00,2013-07-24 08:00:00,
2013-07-24 04:02:00,76.6,72.1,29.79,West,269,0.0,2.0,86,0.00,,---,0.00,VWS V14.01,2013-07-24 08:02:00,
2013-07-24 04:05:00,76.5,72.0,29.79,West,269,1.0,1.0,86,0.00,,---,0.00,VWS V14.01,2013-07-24 08:05:00,
2013-07-24 04:07:00,76.5,72.0,29.79,West,269,1.0,1.0,86,0.00,,---,0.00,VWS V14.01,2013-07-24 08:07:00,
2013-07-24 04:10:00,76.5,72.3,29.79,West,269,0.0,2.0,87,0.00,,---,0.00,VWS V14.01,2013-07-24 08:10:00,
2013-07-24 04:12:00,76.5,72.3,29.79,West,270,0.0,2.0,87,0.00,,---,0.00,VWS V14.01,2013-07-24 08:12:00,
2013-07-24 04:15:00,76.4,72.2,29.79,West,263,0.0,5.0,87,0.00,,---,0.00,VWS V14.01,2013-07-24 08:15:00,
2013-07-24 04:17:00,76.5,72.3,29.78,West,264,3.0,5.0,87,0.00,,---,0.00,VWS V14.01,2013-07-24 08:17:00,
2013-07-24 04:20:00,77.3,72.8,29.79,West,279,0.0,0.0,86,0.00,,---,0.00,VWS V15.00,2013-07-24 08:20:00,
2013-07-24 04:22:00,76.4,72.6,29.78,West,264,1.0,4.0,88,0.00,,---,0.00,VWS V14.01,2013-07-24 08:22:00,
2013-07-24 04:25:00,76.4,72.6,29.78,West,264,2.0,5.0,88,0.00,,---,0.00,VWS V14.01,2013-07-24 08:25:00,
2013-07-24 04:27:00,76.4,72.6,29.78,West,264,1.0,5.0,88,0.00,,---,0.00,VWS V14.01,2013-07-24 08:27:00,
2013-07-24 04:30:00,77.1,72.6,29.78,West,279,0.0,2.0,86,0.00,,---,0.00,VWS V15.00,2013-07-24 08:30:00,
2013-07-24 04:32:00,76.3,72.5,29.78,West,268,2.0,5.0,88,0.00,,---,0.00,VWS V14.01,2013-07-24 08:32:00,
2013-07-24 04:35:00,77.0,72.8,29.78,West,279,0.0,2.0,87,0.00,,---,0.00,VWS V15.00,2013-07-24 08:35:00,
2013-07-24 04:38:00,76.2,72.4,29.78,West,269,1.0,6.0,88,0.00,,---,0.00,VWS V14.01,2013-07-24 08:38:00,
2013-07-24 04:40:00,76.8,72.3,29.79,West,281,2.0,2.0,86,0.00,,---,0.00,VWS V15.00,2013-07-24 08:40:00,
2013-07-24 04:43:00,76.2,72.4,29.78,West,269,3.0,4.0,88,0.00,,---,0.00,VWS V14.01,2013-07-24 08:43:00,
2013-07-24 04:45:00,76.1,72.3,29.78,West,280,8.0,8.0,88,0.00,,---,0.00,VWS V14.01,2013-07-24 08:45:00,
2013-07-24 04:48:00,76.1,72.3,29.78,West,281,4.0,8.0,88,0.00,,---,0.00,VWS V14.01,2013-07-24 08:48:00,
2013-07-24 04:50:00,76.7,71.9,29.79,West,279,2.0,3.0,85,0.00,,---,0.00,VWS V15.00,2013-07-24 08:50:00,
2013-07-24 04:53:00,75.9,71.8,29.78,West,281,5.0,5.0,87,0.00,,---,0.00,VWS V14.01,2013-07-24 08:53:00,
2013-07-24 04:55:00,75.9,71.8,29.78,West,281,4.0,5.0,87,0.00,,---,0.00,VWS V14.01,2013-07-24 08:55:00,
2013-07-24 04:58:00,75.8,71.7,29.78,West,270,7.0,9.0,87,0.00,,---,0.00,VWS V14.01,2013-07-24 08:58:00,
2013-07-24 05:00:00,75.8,71.7,29.78,West,275,4.0,6.0,87,0.00,,---,0.00,VWS V14.01,2013-07-24 09:00:00,
2013-07-24 05:03:00,75.8,71.7,29.78,West,276,6.0,7.0,87,0.00,,---,0.00,VWS V14.01,2013-07-24 09:03:00,
2013-07-24 05:05:00,76.5,72.0,29.79,West,269,1.0,1.0,86,0.00,,---,0.00,VWS V15.00,2013-07-24 09:05:00,
2013-07-24 05:08:00,75.7,71.6,29.78,West,273,3.0,7.0,87,0.00,,---,0.00,VWS V14.01,2013-07-24 09:08:00,
2013-07-24 05:10:00,75.7,71.6,29.78,West,279,6.0,6.0,87,0.00,,---,0.00,VWS V14.01,2013-07-24 09:10:00,
2013-07-24 05:13:00,75.7,71.6,29.78,West,279,4.0,6.0,87,0.00,,---,0.00,VWS V14.01,2013-07-24 09:13:00,
2013-07-24 05:15:00,75.7,71.9,29.78,West,278,3.0,7.0,88,0.00,,---,0.00,VWS V14.01,2013-07-24 09:15:00,
2013-07-24 05:18:00,75.6,71.8,29.78,West,277,2.0,5.0,88,0.00,,---,0.00,VWS V14.01,2013-07-24 09:18:00,
2013-07-24 05:20:00,75.6,71.8,29.78,West,279,4.0,6.0,88,0.00,,---,0.00,VWS V14.01,2013-07-24 09:20:00,
2013-07-24 05:23:00,75.6,71.8,29.79,West,279,3.0,9.0,88,0.00,,---,0.00,VWS V14.01,2013-07-24 09:23:00,
2013-07-24 05:25:00,76.4,72.6,29.78,West,264,2.0,5.0,88,0.00,,---,0.00,VWS V15.00,2013-07-24 09:25:00,
2013-07-24 05:28:00,75.6,71.8,29.78,West,279,2.0,6.0,88,0.00,,---,0.00,VWS V14.01,2013-07-24 09:28:00,
2013-07-24 05:30:00,75.5,71.7,29.79,West,279,3.0,5.0,88,0.00,,---,0.00,VWS V14.01,2013-07-24 09:30:00,
2013-07-24 05:33:00,75.5,71.7,29.79,West,279,4.0,5.0,88,0.00,,---,0.00,VWS V14.01,2013-07-24 09:33:00,
2013-07-24 05:35:00,75.5,71.7,29.79,West,279,2.0,6.0,88,0.00,,---,0.00,VWS V14.01,2013-07-24 09:35:00,
2013-07-24 05:38:00,75.5,72.0,29.78,West,279,0.0,3.0,89,0.00,,---,0.00,VWS V14.01,2013-07-24 09:38:00,
2013-07-24 05:40:00,75.4,71.9,29.79,West,279,3.0,5.0,89,0.00,,---,0.00,VWS V14.01,2013-07-24 09:40:00,
2013-07-24 05:43:00,75.4,71.9,29.78,West,279,1.0,5.0,89,0.00,,---,0.00,VWS V14.01,2013-07-24 09:43:00,
2013-07-24 05:45:00,76.1,72.3,29.78,West,280,8.0,8.0,88,0.00,,---,0.00,VWS V15.00,2013-07-24 09:45:00,
2013-07-24 05:48:00,75.4,71.9,29.78,West,279,1.0,3.0,89,0.00,,---,0.00,VWS V14.01,2013-07-24 09:48:00,
2013-07-24 05:50:00,76.0,71.9,29.78,West,281,2.0,7.0,87,0.00,,---,0.00,VWS V15.00,2013-07-24 09:50:00,
2013-07-24 05:53:00,75.3,71.8,29.78,West,279,0.0,0.0,89,0.00,,---,0.00,VWS V14.01,2013-07-24 09:53:00,
2013-07-24 05:55:00,75.9,71.8,29.78,West,281,4.0,5.0,87,0.00,,---,0.00,VWS V15.00,2013-07-24 09:55:00,
2013-07-24 05:58:00,75.3,71.8,29.78,West,279,0.0,0.0,89,0.00,,---,0.00,VWS V14.01,2013-07-24 09:58:00,
2013-07-24 06:00:00,75.3,71.8,29.78,West,279,0.0,0.0,89,0.00,,---,0.00,VWS V14.01,2013-07-24 10:00:00,
2013-07-24 06:03:00,75.3,71.8,29.78,West,279,0.0,0.0,89,0.00,,---,0.00,VWS V14.01,2013-07-24 10:03:00,
2013-07-24 06:05:00,75.3,72.2,29.78,West,279,0.0,0.0,90,0.00,,---,0.00,VWS V14.01,2013-07-24 10:05:00,
2013-07-24 06:08:00,75.3,72.2,29.78,West,279,0.0,0.0,90,0.00,,---,0.00,VWS V14.01,2013-07-24 10:08:00,
2013-07-24 06:10:00,75.7,71.6,29.78,West,279,6.0,6.0,87,0.00,,---,0.00,VWS V15.00,2013-07-24 10:10:00,
2013-07-24 06:13:00,75.3,72.2,29.78,West,279,0.0,0.0,90,0.00,,---,0.00,VWS V14.01,2013-07-24 10:13:00,
2013-07-24 06:15:00,75.7,71.9,29.78,West,278,3.0,7.0,88,0.00,,---,0.00,VWS V15.00,2013-07-24 10:15:00,
2013-07-24 06:18:00,75.4,72.3,29.78,West,279,0.0,0.0,90,0.00,,---,0.00,VWS V14.01,2013-07-24 10:18:00,
2013-07-24 06:20:00,75.4,72.3,29.78,West,279,0.0,0.0,90,0.00,,---,0.00,VWS V14.01,2013-07-24 10:20:00,
2013-07-24 06:23:00,75.4,72.3,29.78,West,279,0.0,0.0,90,0.00,,---,0.00,VWS V14.01,2013-07-24 10:23:00,
2013-07-24 06:25:00,75.3,72.2,29.78,West,279,0.0,0.0,90,0.00,,---,0.00,VWS V14.01,2013-07-24 10:25:00,
2013-07-24 06:28:00,75.4,72.3,29.78,West,279,0.0,0.0,90,0.00,,---,0.00,VWS V14.01,2013-07-24 10:28:00,
2013-07-24 06:30:00,75.3,72.2,29.78,West,279,0.0,0.0,90,0.00,,---,0.00,VWS V14.01,2013-07-24 10:30:00,
2013-07-24 06:33:00,75.3,72.2,29.78,West,279,0.0,0.0,90,0.00,,---,0.00,VWS V14.01,2013-07-24 10:33:00,
2013-07-24 06:35:00,75.5,71.7,29.79,West,279,2.0,6.0,88,0.00,,---,0.00,VWS V15.00,2013-07-24 10:35:00,
2013-07-24 06:38:00,75.4,72.3,29.78,West,279,0.0,0.0,90,0.00,,---,0.00,VWS V14.01,2013-07-24 10:38:00,
2013-07-24 06:40:00,75.4,72.3,29.78,West,279,0.0,0.0,90,0.00,,---,0.00,VWS V14.01,2013-07-24 10:40:00,
2013-07-24 06:44:00,75.4,72.3,29.78,West,279,0.0,0.0,90,0.00,,---,0.00,VWS V14.01,2013-07-24 10:44:00,
2013-07-24 06:45:00,75.4,71.9,29.78,West,279,2.0,3.0,89,0.00,,---,0.00,VWS V15.00,2013-07-24 10:45:00,
2013-07-24 06:49:00,75.5,72.4,29.78,West,279,0.0,0.0,90,0.00,,---,0.00,VWS V14.01,2013-07-24 10:49:00,
2013-07-24 06:50:00,75.3,71.8,29.78,West,279,0.0,1.0,89,0.00,,---,0.00,VWS V15.00,2013-07-24 10:50:00,
2013-07-24 06:54:00,75.5,72.4,29.79,West,279,0.0,0.0,90,0.00,,---,0.00,VWS V14.01,2013-07-24 10:54:00,
2013-07-24 06:55:00,75.5,72.4,29.79,West,279,0.0,0.0,90,0.00,,---,0.00,VWS V14.01,2013-07-24 10:55:00,
2013-07-24 06:59:00,75.6,72.8,29.79,West,279,0.0,0.0,91,0.00,,---,0.00,VWS V14.01,2013-07-24 10:59:00,
2013-07-24 07:00:00,75.7,72.9,29.79,West,279,0.0,0.0,91,0.00,,---,0.00,VWS V14.01,2013-07-24 11:00:00,
2013-07-24 07:04:00,75.7,72.9,29.79,West,279,0.0,0.0,91,0.00,,---,0.00,VWS V14.01,2013-07-24 11:04:00,
2013-07-24 07:05:00,75.3,72.2,29.78,West,279,0.0,0.0,90,0.00,,---,0.00,VWS V15.00,2013-07-24 11:05:00,
2013-07-24 07:09:00,75.8,73.0,29.80,West,279,0.0,0.0,91,0.00,,---,0.00,VWS V14.01,2013-07-24 11:09:00,
2013-07-24 07:10:00,75.9,72.8,29.80,West,279,0.0,0.0,90,0.00,,---,0.00,VWS V14.01,2013-07-24 11:10:00,
2013-07-24 07:14:00,76.0,73.2,29.80,West,279,0.0,0.0,91,0.00,,---,0.00,VWS V14.01,2013-07-24 11:14:00,
2013-07-24 07:15:00,75.4,72.3,29.78,West,279,0.0,0.0,90,0.00,,---,0.00,VWS V15.00,2013-07-24 11:15:00,
2013-07-24 07:19:00,76.1,73.3,29.81,West,279,0.0,0.0,91,0.00,,---,0.00,VWS V14.01,2013-07-24 11:19:00,
2013-07-24 07:20:00,76.2,73.4,29.81,West,279,2.0,3.0,91,0.00,,---,0.00,VWS V14.01,2013-07-24 11:20:00,
2013-07-24 07:24:00,76.3,73.5,29.81,West,279,1.0,2.0,91,0.00,,---,0.00,VWS V14.01,2013-07-24 11:24:00,
2013-07-24 07:25:00,76.4,73.6,29.81,West,279,3.0,4.0,91,0.00,,---,0.00,VWS V14.01,2013-07-24 11:25:00,
2013-07-24 07:29:00,76.4,73.6,29.82,West,279,5.0,5.0,91,0.00,,---,0.00,VWS V14.01,2013-07-24 11:29:00,
2013-07-24 07:30:00,76.5,73.3,29.82,West,281,6.0,6.0,90,0.00,,---,0.00,VWS V14.01,2013-07-24 11:30:00,
2013-07-24 07:34:00,76.5,73.3,29.82,West,279,2.0,7.0,90,0.00,,---,0.00,VWS V14.01,2013-07-24 11:34:00,
2013-07-24 07:35:00,76.6,73.4,29.82,West,280,2.0,5.0,90,0.00,,---,0.00,VWS V14.01,2013-07-24 11:35:00,
2013-07-24 07:39:00,76.6,73.4,29.81,West,280,2.0,5.0,90,0.00,,---,0.00,VWS V14.01,2013-07-24 11:39:00,
2013-07-24 07:40:00,76.5,73.3,29.81,West,279,2.0,6.0,90,0.00,,---,0.00,VWS V14.01,2013-07-24 11:40:00,
2013-07-24 07:44:00,76.5,73.3,29.81,WNW,282,7.0,7.0,90,0.00,,---,0.00,VWS V14.01,2013-07-24 11:44:00,
2013-07-24 07:45:00,75.4,72.3,29.79,West,279,0.0,0.0,90,0.00,,---,0.00,VWS V15.00,2013-07-24 11:45:00,
2013-07-24 07:49:00,76.6,73.4,29.80,WNW,282,1.0,3.0,90,0.00,,---,0.00,VWS V14.01,2013-07-24 11:49:00,
2013-07-24 07:50:00,76.7,73.6,29.80,West,281,2.0,4.0,90,0.00,,---,0.00,VWS V14.01,2013-07-24 11:50:00,
2013-07-24 07:54:00,76.8,73.7,29.80,WNW,282,3.0,4.0,90,0.00,,---,0.00,VWS V14.01,2013-07-24 11:54:00,
2013-07-24 07:55:00,75.5,72.4,29.79,West,279,0.0,0.0,90,0.00,,---,0.00,VWS V15.00,2013-07-24 11:55:00,
2013-07-24 07:59:00,76.9,73.8,29.81,WNW,282,1.0,3.0,90,0.00,,---,0.00,VWS V14.01,2013-07-24 11:59:00,
2013-07-24 08:00:00,77.0,73.5,29.80,WNW,287,2.0,5.0,89,0.00,,---,0.00,VWS V14.01,2013-07-24 12:00:00,
2013-07-24 08:04:00,77.0,73.5,29.80,WNW,287,1.0,4.0,89,0.00,,---,0.00,VWS V14.01,2013-07-24 12:04:00,
2013-07-24 08:05:00,75.8,73.0,29.79,West,279,0.0,0.0,91,0.00,,---,0.00,VWS V15.00,2013-07-24 12:05:00,
2013-07-24 08:09:00,77.3,73.8,29.80,WNW,288,3.0,5.0,89,0.00,,---,0.00,VWS V14.01,2013-07-24 12:09:00,
2013-07-24 08:10:00,75.9,72.8,29.80,West,279,0.0,0.0,90,0.00,,---,0.00,VWS V15.00,2013-07-24 12:10:00,
2013-07-24 08:14:00,77.3,73.8,29.80,WNW,290,1.0,5.0,89,0.00,,---,0.00,VWS V14.01,2013-07-24 12:14:00,
2013-07-24 08:15:00,77.3,73.8,29.80,WNW,290,4.0,4.0,89,0.00,,---,0.00,VWS V14.01,2013-07-24 12:15:00,
2013-07-24 08:19:00,77.4,73.9,29.80,WNW,296,4.0,5.0,89,0.00,,---,0.00,VWS V14.01,2013-07-24 12:19:00,
2013-07-24 08:20:00,77.4,73.9,29.80,WNW,300,0.0,5.0,89,0.00,,---,0.00,VWS V14.01,2013-07-24 12:20:00,
2013-07-24 08:24:00,77.4,73.9,29.80,WNW,299,2.0,4.0,89,0.00,,---,0.00,VWS V14.01,2013-07-24 12:24:00,
2013-07-24 08:25:00,76.4,73.6,29.81,West,279,3.0,4.0,91,0.00,,---,0.00,VWS V15.00,2013-07-24 12:25:00,
2013-07-24 08:29:00,77.3,73.5,29.80,WNW,294,2.0,5.0,88,0.00,,---,0.00,VWS V14.01,2013-07-24 12:29:00,
2013-07-24 08:30:00,76.5,73.3,29.82,West,281,6.0,6.0,90,0.00,,---,0.00,VWS V15.00,2013-07-24 12:30:00,
2013-07-24 08:34:00,77.5,73.7,29.80,WNW,294,3.0,5.0,88,0.00,,---,0.00,VWS V14.01,2013-07-24 12:34:00,
2013-07-24 08:35:00,76.6,73.4,29.82,West,280,2.0,5.0,90,0.00,,---,0.00,VWS V15.00,2013-07-24 12:35:00,
2013-07-24 08:39:00,77.8,74.0,29.80,WNW,295,6.0,7.0,88,0.00,,---,0.00,VWS V14.01,2013-07-24 12:39:00,
2013-07-24 08:40:00,77.8,73.6,29.81,WNW,293,3.0,8.0,87,0.00,,---,0.00,VWS V14.01,2013-07-24 12:40:00,
2013-07-24 08:44:00,77.8,73.6,29.81,WNW,298,9.0,12.0,87,0.00,,---,0.00,VWS V14.01,2013-07-24 12:44:00,
2013-07-24 08:45:00,77.7,73.5,29.81,WNW,302,3.0,7.0,87,0.00,,---,0.00,VWS V14.01,2013-07-24 12:45:00,
2013-07-24 08:49:00,77.7,73.5,29.81,WNW,303,5.0,7.0,87,0.00,,---,0.00,VWS V14.01,2013-07-24 12:49:00,
2013-07-24 08:50:00,77.8,73.6,29.80,NW,304,2.0,6.0,87,0.00,,---,0.00,VWS V14.01,2013-07-24 12:50:00,
2013-07-24 08:54:00,77.8,73.6,29.81,WNW,303,2.0,6.0,87,0.00,,---,0.00,VWS V14.01,2013-07-24 12:54:00,
2013-07-24 08:55:00,76.9,73.8,29.80,WNW,282,1.0,4.0,90,0.00,,---,0.00,VWS V15.00,2013-07-24 12:55:00,
2013-07-24 08:59:00,78.2,74.0,29.80,NW,307,3.0,9.0,87,0.00,,---,0.00,VWS V14.01,2013-07-24 12:59:00,
2013-07-24 09:00:00,77.0,73.5,29.80,WNW,287,2.0,5.0,89,0.00,,---,0.00,VWS V15.00,2013-07-24 13:00:00,
2013-07-24 09:04:00,78.3,74.1,29.80,NW,307,4.0,5.0,87,0.00,,---,0.00,VWS V14.01,2013-07-24 13:04:00,
2013-07-24 09:05:00,77.2,73.7,29.80,WNW,288,1.0,5.0,89,0.00,,---,0.00,VWS V15.00,2013-07-24 13:05:00,
2013-07-24 09:09:00,78.2,73.7,29.80,NW,306,1.0,6.0,86,0.00,,---,0.00,VWS V14.01,2013-07-24 13:09:00,
2013-07-24 09:10:00,78.3,74.1,29.80,NW,306,2.0,4.0,87,0.00,,---,0.00,VWS V14.01,2013-07-24 13:10:00,
2013-07-24 09:14:00,78.3,73.8,29.80,NW,309,0.0,3.0,86,0.00,,---,0.00,VWS V14.01,2013-07-24 13:14:00,
2013-07-24 09:15:00,78.4,73.9,29.80,NW,309,2.0,2.0,86,0.00,,---,0.00,VWS V14.01,2013-07-24 13:15:00,
2013-07-24 09:19:00,78.3,73.8,29.80,NW,309,0.0,3.0,86,0.00,,---,0.00,VWS V14.01,2013-07-24 13:19:00,
2013-07-24 09:20:00,78.4,73.9,29.80,NW,309,0.0,0.0,86,0.00,,---,0.00,VWS V14.01,2013-07-24 13:20:00,
2013-07-24 09:24:00,78.4,73.9,29.80,NW,309,0.0,0.0,86,0.00,,---,0.00,VWS V14.01,2013-07-24 13:24:00,
2013-07-24 09:25:00,78.4,73.9,29.80,NW,308,0.0,1.0,86,0.00,,---,0.00,VWS V14.01,2013-07-24 13:25:00,
2013-07-24 09:29:00,78.4,73.9,29.81,NW,305,1.0,3.0,86,0.00,,---,0.00,VWS V14.01,2013-07-24 13:29:00,
2013-07-24 09:30:00,78.3,73.8,29.81,NW,305,2.0,2.0,86,0.00,,---,0.00,VWS V14.01,2013-07-24 13:30:00,
2013-07-24 09:34:00,78.3,73.8,29.81,NW,305,3.0,3.0,86,0.00,,---,0.00,VWS V14.01,2013-07-24 13:34:00,
2013-07-24 09:35:00,77.7,73.9,29.80,WNW,298,4.0,7.0,88,0.00,,---,0.00,VWS V15.00,2013-07-24 13:35:00,
2013-07-24 09:39:00,78.2,73.7,29.81,WNW,303,4.0,4.0,86,0.00,,---,0.00,VWS V14.01,2013-07-24 13:39:00,
2013-07-24 09:40:00,77.8,73.6,29.81,WNW,293,3.0,8.0,87,0.00,,---,0.00,VWS V15.00,2013-07-24 13:40:00,
2013-07-24 09:44:00,78.1,73.6,29.81,NW,304,0.0,4.0,86,0.00,,---,0.00,VWS V14.01,2013-07-24 13:44:00,
2013-07-24 09:45:00,78.2,73.7,29.81,WNW,303,0.0,3.0,86,0.00,,---,0.00,VWS V14.01,2013-07-24 13:45:00,
2013-07-24 09:49:00,78.2,73.7,29.81,WNW,303,1.0,3.0,86,0.00,,---,0.00,VWS V14.01,2013-07-24 13:49:00,
2013-07-24 09:50:00,77.8,73.6,29.80,NW,304,2.0,6.0,87,0.00,,---,0.00,VWS V15.00,2013-07-24 13:50:00,
2013-07-24 09:54:00,78.2,73.7,29.81,WNW,303,0.0,0.0,86,0.00,,---,0.00,VWS V14.01,2013-07-24 13:54:00,
2013-07-24 09:55:00,78.3,73.8,29.81,WNW,303,0.0,0.0,86,0.00,,---,0.00,VWS V14.01,2013-07-24 13:55:00,
2013-07-24 09:59:00,78.3,73.8,29.81,WNW,303,0.0,0.0,86,0.00,,---,0.00,VWS V14.01,2013-07-24 13:59:00,
2013-07-24 10:00:00,78.4,73.9,29.80,NW,304,0.0,0.0,86,0.00,,---,0.00,VWS V14.01,2013-07-24 14:00:00,
2013-07-24 10:04:00,78.5,74.3,29.81,WNW,303,0.0,0.0,87,0.00,,---,0.00,VWS V14.01,2013-07-24 14:04:00,
2013-07-24 10:05:00,78.3,74.1,29.80,NW,306,4.0,4.0,87,0.00,,---,0.00,VWS V15.00,2013-07-24 14:05:00,
2013-07-24 10:09:00,78.7,74.2,29.81,WNW,303,2.0,2.0,86,0.00,,---,0.00,VWS V14.01,2013-07-24 14:09:00,
2013-07-24 10:10:00,78.7,74.2,29.81,NW,304,4.0,4.0,86,0.00,,---,0.00,VWS V14.01,2013-07-24 14:10:00,
2013-07-24 10:14:00,78.7,74.2,29.82,NW,304,4.0,5.0,86,0.00,,---,0.00,VWS V14.01,2013-07-24 14:14:00,
2013-07-24 10:15:00,78.7,74.2,29.81,NW,304,2.0,4.0,86,0.00,,---,0.00,VWS V14.01,2013-07-24 14:15:00,
2013-07-24 10:19:00,78.7,74.2,29.82,WNW,303,3.0,4.0,86,0.00,,---,0.00,VWS V14.01,2013-07-24 14:19:00,
2013-07-24 10:20:00,78.6,74.1,29.81,WNW,303,1.0,4.0,86,0.00,,---,0.00,VWS V14.01,2013-07-24 14:20:00,
2013-07-24 10:24:00,78.7,74.2,29.81,NW,304,2.0,3.0,86,0.00,,---,0.00,VWS V14.01,2013-07-24 14:24:00,
2013-07-24 10:25:00,78.7,74.2,29.81,NW,304,0.0,1.0,86,0.00,,---,0.00,VWS V14.01,2013-07-24 14:25:00,
2013-07-24 10:29:00,78.7,74.2,29.81,WNW,303,0.0,0.0,86,0.00,,---,0.00,VWS V14.01,2013-07-24 14:29:00,
2013-07-24 10:30:00,78.9,74.4,29.81,NW,304,4.0,4.0,86,0.00,,---,0.00,VWS V14.01,2013-07-24 14:30:00,
2013-07-24 10:34:00,78.9,74.4,29.81,NW,304,2.0,5.0,86,0.00,,---,0.00,VWS V14.01,2013-07-24 14:34:00,
2013-07-24 10:35:00,79.1,74.6,29.81,WNW,303,2.0,3.0,86,0.00,,---,0.00,VWS V14.01,2013-07-24 14:35:00,
2013-07-24 10:39:00,79.1,74.6,29.81,NW,304,0.0,3.0,86,0.00,,---,0.00,VWS V14.01,2013-07-24 14:39:00,
2013-07-24 10:40:00,79.2,74.3,29.81,NW,304,0.0,3.0,85,0.00,,---,0.00,VWS V14.01,2013-07-24 14:40:00,
2013-07-24 10:44:00,79.3,74.4,29.81,WNW,303,0.0,0.0,85,0.00,,---,0.00,VWS V14.01,2013-07-24 14:44:00,
2013-07-24 10:45:00,78.2,73.7,29.81,WNW,303,0.0,3.0,86,0.00,,---,0.00,VWS V15.00,2013-07-24 14:45:00,
2013-07-24 10:49:00,79.5,74.6,29.81,WNW,303,0.0,2.0,85,0.00,,---,0.00,VWS V14.01,2013-07-24 14:49:00,
2013-07-24 10:50:00,78.2,73.7,29.81,NW,304,0.0,0.0,86,0.00,,---,0.00,VWS V15.00,2013-07-24 14:50:00,
2013-07-24 10:54:00,79.7,74.4,29.81,NW,304,1.0,3.0,84,0.00,,---,0.00,VWS V14.01,2013-07-24 14:54:00,
2013-07-24 10:55:00,79.9,74.6,29.81,WNW,303,0.0,0.0,84,0.00,,---,0.00,VWS V14.01,2013-07-24 14:55:00,
2013-07-24 10:59:00,80.0,74.7,29.81,WNW,303,0.0,0.0,84,0.00,,---,0.00,VWS V14.01,2013-07-24 14:59:00,
2013-07-24 11:00:00,80.3,75.0,29.81,WNW,303,0.0,0.0,84,0.00,,---,0.00,VWS V14.01,2013-07-24 15:00:00,
2013-07-24 11:04:00,80.5,74.9,29.80,NW,304,0.0,0.0,83,0.00,,---,0.00,VWS V14.01,2013-07-24 15:04:00,
2013-07-24 11:05:00,78.6,74.4,29.81,WNW,303,0.0,0.0,87,0.00,,---,0.00,VWS V15.00,2013-07-24 15:05:00,
2013-07-24 11:09:00,80.5,74.9,29.80,WNW,303,0.0,1.0,83,0.00,,---,0.00,VWS V14.01,2013-07-24 15:09:00,
2013-07-24 11:10:00,80.7,75.1,29.80,WNW,303,0.0,0.0,83,0.00,,---,0.00,VWS V14.01,2013-07-24 15:10:00,
2013-07-24 11:14:00,80.9,74.9,29.80,WNW,303,0.0,1.0,82,0.00,,---,0.00,VWS V14.01,2013-07-24 15:14:00,
2013-07-24 11:15:00,80.9,74.9,29.80,WNW,303,0.0,3.0,82,0.00,,---,0.00,VWS V14.01,2013-07-24 15:15:00,
2013-07-24 11:19:00,81.0,75.0,29.80,NW,304,3.0,4.0,82,0.00,,---,0.00,VWS V14.01,2013-07-24 15:19:00,
2013-07-24 11:20:00,78.6,74.1,29.81,WNW,303,1.0,4.0,86,0.00,,---,0.00,VWS V15.00,2013-07-24 15:20:00,
2013-07-24 11:24:00,81.1,75.1,29.80,NW,304,3.0,4.0,82,0.00,,---,0.00,VWS V14.01,2013-07-24 15:24:00,
2013-07-24 11:25:00,81.1,75.1,29.80,NW,304,1.0,4.0,82,0.00,,---,0.00,VWS V14.01,2013-07-24 15:25:00,
2013-07-24 11:29:00,81.1,74.7,29.80,NW,304,1.0,4.0,81,0.00,,---,0.00,VWS V14.01,2013-07-24 15:29:00,
2013-07-24 11:30:00,80.9,74.5,29.80,WNW,303,1.0,4.0,81,0.00,,---,0.00,VWS V14.01,2013-07-24 15:30:00,
2013-07-24 11:34:00,80.9,74.5,29.80,NW,304,0.0,5.0,81,0.00,,---,0.00,VWS V14.01,2013-07-24 15:34:00,
2013-07-24 11:35:00,81.0,74.6,29.80,WNW,303,0.0,4.0,81,0.00,,---,0.00,VWS V14.01,2013-07-24 15:35:00,
2013-07-24 11:39:00,81.1,74.7,29.80,NW,304,1.0,3.0,81,0.00,,---,0.00,VWS V14.01,2013-07-24 15:39:00,
2013-07-24 11:40:00,79.2,74.3,29.81,NW,304,0.0,3.0,85,0.00,,---,0.00,VWS V15.00,2013-07-24 15:40:00,
2013-07-24 11:44:00,81.3,74.9,29.80,WNW,303,0.0,3.0,81,0.00,,---,0.00,VWS V14.01,2013-07-24 15:44:00,
2013-07-24 11:45:00,81.4,75.4,29.80,WNW,303,0.0,1.0,82,0.00,,---,0.00,VWS V14.01,2013-07-24 15:45:00,
2013-07-24 11:49:00,81.5,75.5,29.80,WNW,303,2.0,5.0,82,0.00,,---,0.00,VWS V14.01,2013-07-24 15:49:00,
2013-07-24 11:50:00,79.6,74.3,29.80,WNW,303,0.0,3.0,84,0.00,,---,0.00,VWS V15.00,2013-07-24 15:50:00,
2013-07-24 11:54:00,81.5,75.1,29.80,WNW,296,1.0,4.0,81,0.00,,---,0.00,VWS V14.01,2013-07-24 15:54:00,
2013-07-24 11:55:00,79.9,74.6,29.81,WNW,303,0.0,0.0,84,0.00,,---,0.00,VWS V15.00,2013-07-24 15:55:00,
2013-07-24 11:59:00,81.4,75.0,29.80,WNW,283,4.0,9.0,81,0.00,,---,0.00,VWS V14.01,2013-07-24 15:59:00,
2013-07-24 12:00:00,81.4,75.4,29.80,WNW,283,0.0,2.0,82,0.00,,---,0.00,VWS V14.01,2013-07-24 16:00:00,
2013-07-24 12:04:00,81.6,74.8,29.80,WNW,283,5.0,6.0,80,0.00,,---,0.00,VWS V14.01,2013-07-24 16:04:00,
2013-07-24 12:05:00,81.6,75.2,29.80,WNW,283,1.0,3.0,81,0.00,,---,0.00,VWS V14.01,2013-07-24 16:05:00,
2013-07-24 12:09:00,81.6,74.8,29.80,WNW,282,3.0,6.0,80,0.00,,---,0.00,VWS V14.01,2013-07-24 16:09:00,
2013-07-24 12:10:00,81.5,74.7,29.80,West,281,0.0,6.0,80,0.00,,---,0.00,VWS V14.01,2013-07-24 16:10:00,
2013-07-24 12:14:00,81.5,75.1,29.79,WNW,282,4.0,5.0,81,0.00,,---,0.00,VWS V14.01,2013-07-24 16:14:00,
2013-07-24 12:15:00,80.9,74.9,29.80,WNW,303,0.0,3.0,82,0.00,,---,0.00,VWS V15.00,2013-07-24 16:15:00,
2013-07-24 12:19:00,81.9,75.5,29.79,WNW,282,3.0,5.0,81,0.00,,---,0.00,VWS V14.01,2013-07-24 16:19:00,
2013-07-24 12:20:00,81.9,75.1,29.79,WNW,282,4.0,6.0,80,0.00,,---,0.00,VWS V14.01,2013-07-24 16:20:00,
2013-07-24 12:24:00,81.9,75.5,29.79,WNW,282,6.0,7.0,81,0.00,,---,0.00,VWS V14.01,2013-07-24 16:24:00,
2013-07-24 12:25:00,81.1,75.1,29.80,NW,304,1.0,4.0,82,0.00,,---,0.00,VWS V15.00,2013-07-24 16:25:00,
2013-07-24 12:29:00,81.7,74.9,29.79,West,281,2.0,4.0,80,0.00,,---,0.00,VWS V14.01,2013-07-24 16:29:00,
2013-07-24 12:30:00,80.9,74.5,29.80,WNW,303,1.0,4.0,81,0.00,,---,0.00,VWS V15.00,2013-07-24 16:30:00,
2013-07-24 12:34:00,81.8,75.4,29.79,West,280,0.0,0.0,81,0.00,,---,0.00,VWS V14.01,2013-07-24 16:34:00,
2013-07-24 12:35:00,81.0,74.6,29.80,WNW,303,0.0,4.0,81,0.00,,---,0.00,VWS V15.00,2013-07-24 16:35:00,
2013-07-24 12:39:00,82.0,75.6,29.79,West,277,0.0,5.0,81,0.00,,---,0.00,VWS V14.01,2013-07-24 16:39:00,
2013-07-24 12:40:00,82.0,75.6,29.79,West,278,0.0,4.0,81,0.00,,---,0.00,VWS V14.01,2013-07-24 16:40:00,
2013-07-24 12:44:00,82.1,75.7,29.79,West,277,4.0,5.0,81,0.00,,---,0.00,VWS V14.01,2013-07-24 16:44:00,
2013-07-24 12:45:00,82.1,75.7,29.79,West,276,4.0,4.0,81,0.00,,---,0.00,VWS V14.01,2013-07-24 16:45:00,
2013-07-24 12:49:00,82.1,75.7,29.79,West,277,0.0,2.0,81,0.00,,---,0.00,VWS V14.01,2013-07-24 16:49:00,
2013-07-24 12:50:00,81.6,75.6,29.80,WNW,296,5.0,7.0,82,0.00,,---,0.00,VWS V15.00,2013-07-24 16:50:00,
2013-07-24 12:54:00,82.3,75.5,29.79,West,277,2.0,4.0,80,0.00,,---,0.00,VWS V14.01,2013-07-24 16:54:00,
2013-07-24 12:55:00,81.5,75.1,29.80,WNW,296,1.0,4.0,81,0.00,,---,0.00,VWS V15.00,2013-07-24 16:55:00,
2013-07-24 13:00:00,82.4,75.6,29.79,West,277,0.0,0.0,80,0.00,,---,0.00,VWS V14.01,2013-07-24 17:00:00,
2013-07-24 13:05:00,82.8,76.0,29.79,West,277,0.0,3.0,80,0.00,,---,0.00,VWS V14.01,2013-07-24 17:05:00,
2013-07-24 13:09:00,82.7,75.2,29.79,West,276,0.0,4.0,78,0.00,,---,0.00,VWS V14.01,2013-07-24 17:09:00,
2013-07-24 13:10:00,82.9,75.3,29.79,West,276,0.0,0.0,78,0.00,,---,0.00,VWS V14.01,2013-07-24 17:10:00,
2013-07-24 13:15:00,83.1,75.9,29.79,West,276,0.0,0.0,79,0.00,,---,0.00,VWS V14.01,2013-07-24 17:15:00,
2013-07-24 13:20:00,83.4,75.8,29.79,West,276,2.0,4.0,78,0.00,,---,0.00,VWS V14.01,2013-07-24 17:20:00,
2013-07-24 13:25:00,83.3,76.1,29.79,West,276,5.0,6.0,79,0.00,,---,0.00,VWS V14.01,2013-07-24 17:25:00,
2013-07-24 13:30:00,83.0,76.2,29.79,West,276,0.0,5.0,80,0.00,,---,0.00,VWS V14.01,2013-07-24 17:30:00,
2013-07-24 13:35:00,83.2,75.6,29.79,West,276,2.0,7.0,78,0.00,,---,0.00,VWS V14.01,2013-07-24 17:35:00,
2013-07-24 13:40:00,83.4,75.8,29.79,West,277,0.0,7.0,78,0.00,,---,0.00,VWS V14.01,2013-07-24 17:40:00,
2013-07-24 13:45:00,83.3,75.7,29.79,West,275,0.0,6.0,78,0.00,,---,0.00,VWS V14.01,2013-07-24 17:45:00,
2013-07-24 13:50:00,83.7,76.5,29.79,West,275,3.0,9.0,79,0.00,,---,0.00,VWS V14.01,2013-07-24 17:50:00,
2013-07-24 13:55:00,83.6,76.0,29.79,West,273,2.0,8.0,78,0.00,,---,0.00,VWS V14.01,2013-07-24 17:55:00,
2013-07-24 14:00:00,83.8,76.2,29.79,West,272,7.0,7.0,78,0.00,,---,0.00,VWS V14.01,2013-07-24 18:00:00,
2013-07-24 14:05:00,83.4,75.8,29.79,West,269,2.0,9.0,78,0.00,,---,0.00,VWS V14.01,2013-07-24 18:05:00,
2013-07-24 14:10:00,83.2,75.6,29.78,West,267,0.0,7.0,78,0.00,,---,0.00,VWS V14.01,2013-07-24 18:10:00,
2013-07-24 14:15:00,82.9,75.7,29.78,WSW,248,7.0,10.0,79,0.00,,---,0.00,VWS V14.01,2013-07-24 18:15:00,
2013-07-24 14:20:00,82.6,75.1,29.78,WSW,246,0.0,8.0,78,0.00,,---,0.00,VWS V14.01,2013-07-24 18:20:00,
2013-07-24 14:25:00,82.5,75.3,29.79,WSW,246,2.0,5.0,79,0.00,,---,0.00,VWS V14.01,2013-07-24 18:25:00,
2013-07-24 14:30:00,82.4,74.9,29.78,WSW,246,0.0,6.0,78,0.00,,---,0.00,VWS V14.01,2013-07-24 18:30:00,
2013-07-24 14:35:00,82.5,75.3,29.78,WSW,246,1.0,6.0,79,0.00,,---,0.00,VWS V14.01,2013-07-24 18:35:00,
2013-07-24 14:40:00,82.4,75.6,29.78,WSW,246,6.0,6.0,80,0.00,,---,0.00,VWS V14.01,2013-07-24 18:40:00,
2013-07-24 14:45:00,82.2,75.0,29.78,WSW,248,4.0,5.0,79,0.00,,---,0.00,VWS V14.01,2013-07-24 18:45:00,
2013-07-24 14:50:00,82.1,75.3,29.78,WSW,248,0.0,5.0,80,0.00,,---,0.00,VWS V14.01,2013-07-24 18:50:00,
2013-07-24 14:55:00,82.2,75.4,29.78,WSW,248,2.0,3.0,80,0.00,,---,0.00,VWS V14.01,2013-07-24 18:55:00,
2013-07-24 15:00:00,82.3,75.5,29.78,WSW,248,0.0,0.0,80,0.00,,---,0.00,VWS V14.01,2013-07-24 19:00:00,
2013-07-24 15:05:00,82.6,75.8,29.78,WSW,252,3.0,5.0,80,0.00,,---,0.00,VWS V14.01,2013-07-24 19:05:00,
2013-07-24 15:10:00,82.9,75.7,29.78,West,264,6.0,7.0,79,0.00,,---,0.00,VWS V14.01,2013-07-24 19:10:00,
2013-07-24 15:15:00,82.8,75.2,29.78,WNW,287,2.0,12.0,78,0.00,,---,0.00,VWS V14.01,2013-07-24 19:15:00,
2013-07-24 15:20:00,82.9,75.3,29.77,West,281,4.0,7.0,78,0.00,,---,0.00,VWS V14.01,2013-07-24 19:20:00,
2013-07-24 15:25:00,83.0,75.1,29.77,West,280,3.0,7.0,77,0.00,,---,0.00,VWS V14.01,2013-07-24 19:25:00,
2013-07-24 15:30:00,83.2,75.2,29.77,WNW,292,2.0,11.0,77,0.00,,---,0.00,VWS V14.01,2013-07-24 19:30:00,
2013-07-24 15:35:00,83.2,75.6,29.77,WNW,289,6.0,6.0,78,0.00,,---,0.00,VWS V14.01,2013-07-24 19:35:00,
2013-07-24 15:40:00,83.5,75.5,29.77,West,276,5.0,11.0,77,0.00,,---,0.00,VWS V14.01,2013-07-24 19:40:00,
2013-07-24 15:45:00,83.4,75.1,29.77,West,273,5.0,9.0,76,0.00,,---,0.00,VWS V14.01,2013-07-24 19:45:00,
2013-07-24 15:50:00,83.6,75.6,29.77,West,275,4.0,5.0,77,0.00,,---,0.00,VWS V14.01,2013-07-24 19:50:00,
2013-07-24 15:55:00,83.6,75.2,29.77,West,277,0.0,7.0,76,0.00,,---,0.00,VWS V14.01,2013-07-24 19:55:00,
2013-07-24 16:00:00,83.7,75.3,29.77,West,277,1.0,6.0,76,0.00,,---,0.00,VWS V14.01,2013-07-24 20:00:00,
2013-07-24 16:05:00,83.7,75.3,29.76,West,273,3.0,6.0,76,0.00,,---,0.00,VWS V14.01,2013-07-24 20:05:00,
2013-07-24 16:10:00,83.6,75.6,29.76,West,275,6.0,7.0,77,0.00,,---,0.00,VWS V14.01,2013-07-24 20:10:00,
2013-07-24 16:15:00,83.4,75.4,29.76,WNW,288,6.0,6.0,77,0.00,,---,0.00,VWS V14.01,2013-07-24 20:15:00,
2013-07-24 16:20:00,83.3,74.9,29.76,WNW,287,4.0,7.0,76,0.00,,---,0.00,VWS V14.01,2013-07-24 20:20:00,
2013-07-24 16:25:00,83.1,75.2,29.76,WNW,294,2.0,9.0,77,0.00,,---,0.00,VWS V14.01,2013-07-24 20:25:00,
2013-07-24 16:26:00,83.2,75.2,29.76,West,281,6.0,7.0,77,0.00,,---,0.00,VWS V14.01,2013-07-24 20:26:00,
2013-07-24 16:30:00,83.0,75.4,29.76,WNW,298,3.0,7.0,78,0.00,,---,0.00,VWS V14.01,2013-07-24 20:30:00,
2013-07-24 16:31:00,83.1,75.5,29.76,WNW,293,5.0,8.0,78,0.00,,---,0.00,VWS V14.01,2013-07-24 20:31:00,
2013-07-24 16:35:00,82.8,75.6,29.76,WNW,300,2.0,9.0,79,0.00,,---,0.00,VWS V14.01,2013-07-24 20:35:00,
2013-07-24 16:36:00,82.9,75.7,29.76,WNW,297,3.0,6.0,79,0.00,,---,0.00,VWS V14.01,2013-07-24 20:36:00,
2013-07-24 16:40:00,82.5,75.3,29.76,NW,304,4.0,5.0,79,0.00,,---,0.00,VWS V14.01,2013-07-24 20:40:00,
2013-07-24 16:41:00,82.5,75.3,29.76,NW,305,3.0,9.0,79,0.00,,---,0.00,VWS V14.01,2013-07-24 20:41:00,
2013-07-24 16:45:00,82.5,75.3,29.76,NW,310,1.0,7.0,79,0.00,,---,0.00,VWS V14.01,2013-07-24 20:45:00,
2013-07-24 16:46:00,82.5,75.3,29.76,NW,305,5.0,5.0,79,0.00,,---,0.00,VWS V14.01,2013-07-24 20:46:00,
2013-07-24 16:50:00,82.5,74.9,29.76,NW,309,5.0,7.0,78,0.00,,---,0.00,VWS V14.01,2013-07-24 20:50:00,
2013-07-24 16:51:00,82.5,75.3,29.76,NW,309,1.0,4.0,79,0.00,,---,0.00,VWS V14.01,2013-07-24 20:51:00,
2013-07-24 16:55:00,82.3,75.1,29.75,WNW,296,2.0,6.0,79,0.00,,---,0.00,VWS V14.01,2013-07-24 20:55:00,
2013-07-24 16:56:00,82.3,75.1,29.75,WNW,295,1.0,9.0,79,0.00,,---,0.00,VWS V14.01,2013-07-24 20:56:00,
2013-07-24 17:00:00,82.8,75.6,29.75,WNW,296,1.0,5.0,79,0.00,,---,0.00,VWS V14.01,2013-07-24 21:00:00,
2013-07-24 17:01:00,82.6,75.8,29.75,WNW,296,0.0,0.0,80,0.00,,---,0.00,VWS V14.01,2013-07-24 21:01:00,
2013-07-24 17:05:00,83.0,75.8,29.75,WNW,300,4.0,5.0,79,0.00,,---,0.00,VWS V14.01,2013-07-24 21:05:00,
2013-07-24 17:06:00,82.9,75.3,29.75,WNW,298,5.0,7.0,78,0.00,,---,0.00,VWS V14.01,2013-07-24 21:06:00,
2013-07-24 17:10:00,83.3,75.7,29.75,WNW,303,3.0,6.0,78,0.00,,---,0.00,VWS V14.01,2013-07-24 21:10:00,
2013-07-24 17:11:00,83.3,75.7,29.75,WNW,303,4.0,6.0,78,0.00,,---,0.00,VWS V14.01,2013-07-24 21:11:00,
2013-07-24 17:15:00,83.5,75.9,29.75,NW,305,6.0,6.0,78,0.00,,---,0.00,VWS V14.01,2013-07-24 21:15:00,
2013-07-24 17:16:00,83.3,75.7,29.75,NW,305,1.0,5.0,78,0.00,,---,0.00,VWS V14.01,2013-07-24 21:16:00,
2013-07-24 17:20:00,83.6,75.6,29.75,WNW,294,0.0,8.0,77,0.00,,---,0.00,VWS V14.01,2013-07-24 21:20:00,
2013-07-24 17:21:00,83.6,75.6,29.75,WNW,294,4.0,8.0,77,0.00,,---,0.00,VWS V14.01,2013-07-24 21:21:00,
2013-07-24 17:25:00,83.1,75.2,29.76,WNW,294,2.0,9.0,77,0.00,,---,0.00,VWS V15.00,2013-07-24 21:25:00,
2013-07-24 17:26:00,84.0,76.4,29.75,WNW,295,7.0,7.0,78,0.00,,---,0.00,VWS V14.01,2013-07-24 21:26:00,
2013-07-24 17:30:00,83.7,74.9,29.75,WNW,292,5.0,6.0,75,0.00,,---,0.00,VWS V14.01,2013-07-24 21:30:00,
2013-07-24 17:31:00,83.9,75.5,29.75,WNW,292,5.0,7.0,76,0.00,,---,0.00,VWS V14.01,2013-07-24 21:31:00,
2013-07-24 17:35:00,83.7,75.3,29.75,WNW,300,3.0,10.0,76,0.00,,---,0.00,VWS V14.01,2013-07-24 21:35:00,
2013-07-24 17:36:00,83.7,75.7,29.75,WNW,296,3.0,6.0,77,0.00,,---,0.00,VWS V14.01,2013-07-24 21:36:00,
2013-07-24 17:40:00,83.0,75.1,29.75,WNW,290,4.0,9.0,77,0.00,,---,0.00,VWS V14.01,2013-07-24 21:40:00,
2013-07-24 17:41:00,83.2,74.8,29.75,WNW,298,2.0,9.0,76,0.00,,---,0.00,VWS V14.01,2013-07-24 21:41:00,
2013-07-24 17:45:00,82.8,75.2,29.75,NW,309,4.0,9.0,78,0.00,,---,0.00,VWS V14.01,2013-07-24 21:45:00,
2013-07-24 17:46:00,82.8,74.9,29.75,WNW,295,5.0,9.0,77,0.00,,---,0.00,VWS V14.01,2013-07-24 21:46:00,
2013-07-24 17:50:00,83.0,75.1,29.75,NW,317,5.0,11.0,77,0.00,,---,0.00,VWS V14.01,2013-07-24 21:50:00,
2013-07-24 17:51:00,83.0,75.1,29.75,NW,313,11.0,11.0,77,0.00,,---,0.00,VWS V14.01,2013-07-24 21:51:00,
2013-07-24 17:55:00,83.3,74.9,29.75,NW,311,5.0,7.0,76,0.00,,---,0.00,VWS V14.01,2013-07-24 21:55:00,
2013-07-24 17:56:00,83.2,75.2,29.75,NW,317,0.0,3.0,77,0.00,,---,0.00,VWS V14.01,2013-07-24 21:56:00,
2013-07-24 18:00:00,83.5,74.8,29.75,NW,304,4.0,7.0,75,0.00,,---,0.00,VWS V14.01,2013-07-24 22:00:00,
2013-07-24 18:01:00,83.5,75.1,29.75,NW,305,5.0,7.0,76,0.00,,---,0.00,VWS V14.01,2013-07-24 22:01:00,
2013-07-24 18:05:00,83.5,75.1,29.75,NW,316,5.0,9.0,76,0.00,,---,0.00,VWS V14.01,2013-07-24 22:05:00,
2013-07-24 18:06:00,83.4,75.1,29.75,NW,315,6.0,9.0,76,0.00,,---,0.00,VWS V14.01,2013-07-24 22:06:00,
2013-07-24 18:10:00,83.5,74.8,29.75,NW,309,6.0,10.0,75,0.00,,---,0.00,VWS V14.01,2013-07-24 22:10:00,
2013-07-24 18:12:00,83.5,75.1,29.75,NW,310,5.0,10.0,76,0.00,,---,0.00,VWS V14.01,2013-07-24 22:12:00,
2013-07-24 18:15:00,83.4,74.7,29.75,NW,306,3.0,6.0,75,0.00,,---,0.00,VWS V14.01,2013-07-24 22:15:00,
2013-07-24 18:17:00,83.4,74.7,29.75,NW,306,5.0,6.0,75,0.00,,---,0.00,VWS V14.01,2013-07-24 22:17:00,
2013-07-24 18:20:00,83.4,74.7,29.75,NW,304,7.0,9.0,75,0.00,,---,0.00,VWS V14.01,2013-07-24 22:20:00,
2013-07-24 18:22:00,83.4,74.7,29.75,NW,304,7.0,9.0,75,0.00,,---,0.00,VWS V14.01,2013-07-24 22:22:00,
2013-07-24 18:25:00,83.4,75.0,29.75,NW,305,4.0,6.0,76,0.00,,---,0.00,VWS V14.01,2013-07-24 22:25:00,
2013-07-24 18:27:00,83.4,75.1,29.75,NW,305,5.0,6.0,76,0.00,,---,0.00,VWS V14.01,2013-07-24 22:27:00,
2013-07-24 18:30:00,83.4,74.2,29.74,NW,305,4.0,6.0,74,0.00,,---,0.00,VWS V14.01,2013-07-24 22:30:00,
2013-07-24 18:32:00,83.4,74.2,29.74,NW,305,2.0,6.0,74,0.00,,---,0.00,VWS V14.01,2013-07-24 22:32:00,
2013-07-24 18:35:00,83.4,74.2,29.75,NW,305,0.0,1.0,74,0.00,,---,0.00,VWS V14.01,2013-07-24 22:35:00,
2013-07-24 18:37:00,83.4,74.2,29.75,NW,305,0.0,2.0,74,0.00,,---,0.00,VWS V14.01,2013-07-24 22:37:00,
2013-07-24 18:40:00,83.6,74.4,29.75,NW,304,5.0,5.0,74,0.00,,---,0.00,VWS V14.01,2013-07-24 22:40:00,
2013-07-24 18:42:00,83.6,74.4,29.75,NW,305,4.0,5.0,74,0.00,,---,0.00,VWS V14.01,2013-07-24 22:42:00,
2013-07-24 18:45:00,83.3,74.2,29.75,NW,305,0.0,4.0,74,0.00,,---,0.00,VWS V14.01,2013-07-24 22:45:00,
2013-07-24 18:47:00,83.3,74.2,29.75,NW,305,0.0,4.0,74,0.00,,---,0.00,VWS V14.01,2013-07-24 22:47:00,
2013-07-24 18:50:00,83.3,74.2,29.75,NW,305,2.0,3.0,74,0.00,,---,0.00,VWS V14.01,2013-07-24 22:50:00,
2013-07-24 18:52:00,83.3,74.2,29.75,NW,304,2.0,3.0,74,0.00,,---,0.00,VWS V14.01,2013-07-24 22:52:00,
2013-07-24 18:55:00,83.4,74.2,29.75,NW,305,2.0,5.0,74,0.00,,---,0.00,VWS V14.01,2013-07-24 22:55:00,
2013-07-24 18:57:00,83.4,74.2,29.75,NW,305,2.0,5.0,74,0.00,,---,0.00,VWS V14.01,2013-07-24 22:57:00,
2013-07-24 19:00:00,83.2,74.5,29.75,NW,305,0.0,0.0,75,0.00,,---,0.00,VWS V14.01,2013-07-24 23:00:00,
2013-07-24 19:02:00,83.2,74.5,29.75,NW,305,0.0,0.0,75,0.00,,---,0.00,VWS V14.01,2013-07-24 23:02:00,
2013-07-24 19:05:00,83.4,74.2,29.75,NW,305,0.0,1.0,74,0.00,,---,0.00,VWS V14.01,2013-07-24 23:05:00,
2013-07-24 19:07:00,83.4,74.2,29.75,NW,304,0.0,1.0,74,0.00,,---,0.00,VWS V14.01,2013-07-24 23:07:00,
2013-07-24 19:10:00,83.0,74.3,29.76,NW,304,3.0,5.0,75,0.00,,---,0.00,VWS V14.01,2013-07-24 23:10:00,
2013-07-24 19:12:00,83.0,74.3,29.76,NW,304,3.0,5.0,75,0.00,,---,0.00,VWS V14.01,2013-07-24 23:12:00,
2013-07-24 19:15:00,82.6,74.7,29.76,NW,304,2.0,4.0,77,0.00,,---,0.00,VWS V14.01,2013-07-24 23:15:00,
2013-07-24 19:17:00,82.6,74.7,29.76,NW,304,2.0,4.0,77,0.00,,---,0.00,VWS V14.01,2013-07-24 23:17:00,
2013-07-24 19:20:00,82.6,74.7,29.77,NW,305,2.0,5.0,77,0.00,,---,0.00,VWS V14.01,2013-07-24 23:20:00,
2013-07-24 19:22:00,82.6,74.7,29.77,NW,305,2.0,5.0,77,0.00,,---,0.00,VWS V14.01,2013-07-24 23:22:00,
2013-07-24 19:25:00,82.5,74.6,29.77,NW,304,2.0,5.0,77,0.00,,---,0.00,VWS V14.01,2013-07-24 23:25:00,
2013-07-24 19:27:00,82.5,74.6,29.77,NW,304,2.0,5.0,77,0.00,,---,0.00,VWS V14.01,2013-07-24 23:27:00,
2013-07-24 19:30:00,82.4,74.5,29.78,NW,304,7.0,7.0,77,0.00,,---,0.00,VWS V14.01,2013-07-24 23:30:00,
2013-07-24 19:32:00,82.4,74.5,29.78,NW,304,6.0,7.0,77,0.00,,---,0.00,VWS V14.01,2013-07-24 23:32:00,
2013-07-24 19:35:00,82.2,74.7,29.78,WNW,302,6.0,6.0,78,0.00,,---,0.00,VWS V14.01,2013-07-24 23:35:00,
2013-07-24 19:37:00,82.2,74.7,29.78,WNW,302,4.0,6.0,78,0.00,,---,0.00,VWS V14.01,2013-07-24 23:37:00,
2013-07-24 19:40:00,82.0,74.5,29.78,WNW,300,4.0,7.0,78,0.00,,---,0.00,VWS V14.01,2013-07-24 23:40:00,
2013-07-24 19:42:00,82.0,74.5,29.78,WNW,300,4.0,7.0,78,0.00,,---,0.00,VWS V14.01,2013-07-24 23:42:00,
2013-07-24 19:45:00,81.7,74.6,29.78,WNW,299,4.0,5.0,79,0.00,,---,0.00,VWS V14.01,2013-07-24 23:45:00,
2013-07-24 19:47:00,81.6,74.5,29.78,WNW,299,4.0,5.0,79,0.00,,---,0.00,VWS V14.01,2013-07-24 23:47:00,
2013-07-24 19:50:00,81.3,74.2,29.77,WNW,298,3.0,5.0,79,0.00,,---,0.00,VWS V14.01,2013-07-24 23:50:00,
2013-07-24 19:52:00,81.3,74.2,29.77,WNW,298,3.0,5.0,79,0.00,,---,0.00,VWS V14.01,2013-07-24 23:52:00,
2013-07-24 19:55:00,81.1,74.3,29.77,WNW,298,2.0,2.0,80,0.00,,---,0.00,VWS V14.01,2013-07-24 23:55:00,
2013-07-24 19:57:00,81.1,74.3,29.77,WNW,298,0.0,3.0,80,0.00,,---,0.00,VWS V14.01,2013-07-24 23:57:00,
2013-07-24 20:00:00,80.8,74.1,29.77,WNW,298,0.0,0.0,80,0.00,,---,0.00,VWS V14.01,2013-07-25 00:00:00,
2013-07-24 20:02:00,80.8,74.1,29.77,WNW,298,0.0,0.0,80,0.00,,---,0.00,VWS V14.01,2013-07-25 00:02:00,
2013-07-24 20:05:00,80.7,74.3,29.77,WNW,298,0.0,0.0,81,0.00,,---,0.00,VWS V14.01,2013-07-25 00:05:00,
2013-07-24 20:07:00,80.7,74.3,29.77,WNW,298,0.0,0.0,81,0.00,,---,0.00,VWS V14.01,2013-07-25 00:07:00,
2013-07-24 20:10:00,80.5,74.1,29.78,WNW,298,1.0,3.0,81,0.00,,---,0.00,VWS V14.01,2013-07-25 00:10:00,
2013-07-24 20:12:00,80.5,74.1,29.77,WNW,298,2.0,3.0,81,0.00,,---,0.00,VWS V14.01,2013-07-25 00:12:00,
2013-07-24 20:15:00,80.3,73.9,29.78,WNW,298,0.0,3.0,81,0.00,,---,0.00,VWS V14.01,2013-07-25 00:15:00,
2013-07-24 20:17:00,80.4,74.0,29.78,WNW,298,1.0,3.0,81,0.00,,---,0.00,VWS V14.01,2013-07-25 00:17:00,
2013-07-24 20:20:00,80.3,74.3,29.79,WNW,298,0.0,5.0,82,0.00,,---,0.00,VWS V14.01,2013-07-25 00:20:00,
2013-07-24 20:23:00,80.3,74.3,29.79,WNW,298,4.0,5.0,82,0.00,,---,0.00,VWS V14.01,2013-07-25 00:23:00,
2013-07-24 20:25:00,80.2,74.2,29.79,WNW,298,6.0,6.0,82,0.00,,---,0.00,VWS V14.01,2013-07-25 00:25:00,
2013-07-24 20:28:00,80.1,74.1,29.79,WNW,298,4.0,6.0,82,0.00,,---,0.00,VWS V14.01,2013-07-25 00:28:00,
2013-07-24 20:30:00,80.0,74.0,29.79,WNW,298,3.0,7.0,82,0.00,,---,0.00,VWS V14.01,2013-07-25 00:30:00,
2013-07-24 20:33:00,80.0,74.0,29.79,WNW,298,2.0,7.0,82,0.00,,---,0.00,VWS V14.01,2013-07-25 00:33:00,
2013-07-24 20:35:00,79.9,74.3,29.79,WNW,290,5.0,10.0,83,0.00,,---,0.00,VWS V14.01,2013-07-25 00:35:00,
2013-07-24 20:38:00,79.8,74.2,29.79,WNW,290,3.0,10.0,83,0.00,,---,0.00,VWS V14.01,2013-07-25 00:38:00,
2013-07-24 20:40:00,79.7,74.1,29.79,WNW,290,3.0,5.0,83,0.00,,---,0.00,VWS V14.01,2013-07-25 00:40:00,
2013-07-24 20:43:00,79.7,74.1,29.79,WNW,290,1.0,5.0,83,0.00,,---,0.00,VWS V14.01,2013-07-25 00:43:00,
2013-07-24 20:45:00,79.6,74.3,29.79,WNW,290,2.0,7.0,84,0.00,,---,0.00,VWS V14.01,2013-07-25 00:45:00,
2013-07-24 20:48:00,79.6,74.3,29.79,WNW,290,3.0,5.0,84,0.00,,---,0.00,VWS V14.01,2013-07-25 00:48:00,
2013-07-24 20:50:00,79.4,74.2,29.79,WNW,290,1.0,3.0,84,0.00,,---,0.00,VWS V14.01,2013-07-25 00:50:00,
2013-07-24 20:53:00,79.4,74.2,29.79,WNW,290,0.0,3.0,84,0.00,,---,0.00,VWS V14.01,2013-07-25 00:53:00,
2013-07-24 20:55:00,79.4,74.2,29.79,WNW,290,0.0,2.0,84,0.00,,---,0.00,VWS V14.01,2013-07-25 00:55:00,
2013-07-24 20:58:00,79.4,74.2,29.79,WNW,290,3.0,3.0,84,0.00,,---,0.00,VWS V14.01,2013-07-25 00:58:00,
2013-07-24 21:00:00,79.3,74.1,29.79,WNW,290,0.0,1.0,84,0.00,,---,0.00,VWS V14.01,2013-07-25 01:00:00,
2013-07-24 21:03:00,79.3,74.4,29.79,WNW,290,2.0,3.0,85,0.00,,---,0.00,VWS V14.01,2013-07-25 01:03:00,
2013-07-24 21:05:00,79.3,74.1,29.79,WNW,290,2.0,3.0,84,0.00,,---,0.00,VWS V14.01,2013-07-25 01:05:00,
2013-07-24 21:08:00,79.2,73.9,29.79,WNW,290,2.0,3.0,84,0.00,,---,0.00,VWS V14.01,2013-07-25 01:08:00,
2013-07-24 21:10:00,79.2,73.9,29.79,WNW,290,1.0,4.0,84,0.00,,---,0.00,VWS V14.01,2013-07-25 01:10:00,
2013-07-24 21:13:00,79.2,74.3,29.79,WNW,290,0.0,4.0,85,0.00,,---,0.00,VWS V14.01,2013-07-25 01:13:00,
2013-07-24 21:15:00,79.2,74.3,29.80,WNW,290,3.0,3.0,85,0.00,,---,0.00,VWS V14.01,2013-07-25 01:15:00,
2013-07-24 21:18:00,79.2,73.9,29.80,WNW,290,3.0,6.0,84,0.00,,---,0.00,VWS V14.01,2013-07-25 01:18:00,
2013-07-24 21:20:00,79.1,74.2,29.80,WNW,290,0.0,3.0,85,0.00,,---,0.00,VWS V14.01,2013-07-25 01:20:00,
2013-07-24 21:23:00,79.1,74.2,29.80,WNW,290,0.0,3.0,85,0.00,,---,0.00,VWS V14.01,2013-07-25 01:23:00,
2013-07-24 21:25:00,79.1,74.2,29.80,WNW,290,3.0,3.0,85,0.00,,---,0.00,VWS V14.01,2013-07-25 01:25:00,
2013-07-24 21:28:00,79.1,74.2,29.80,WNW,290,1.0,3.0,85,0.00,,---,0.00,VWS V14.01,2013-07-25 01:28:00,
2013-07-24 21:30:00,79.1,74.2,29.80,WNW,290,0.0,2.0,85,0.00,,---,0.00,VWS V14.01,2013-07-25 01:30:00,
2013-07-24 21:33:00,79.2,74.3,29.80,WNW,290,0.0,2.0,85,0.00,,---,0.00,VWS V14.01,2013-07-25 01:33:00,
2013-07-24 21:35:00,79.2,74.3,29.80,WNW,290,2.0,4.0,85,0.00,,---,0.00,VWS V14.01,2013-07-25 01:35:00,
2013-07-24 21:38:00,79.2,74.3,29.80,WNW,290,3.0,4.0,85,0.00,,---,0.00,VWS V14.01,2013-07-25 01:38:00,
2013-07-24 21:40:00,79.2,74.3,29.80,WNW,290,3.0,4.0,85,0.00,,---,0.00,VWS V14.01,2013-07-25 01:40:00,
2013-07-24 21:43:00,79.2,74.3,29.80,WNW,290,2.0,4.0,85,0.00,,---,0.00,VWS V14.01,2013-07-25 01:43:00,
2013-07-24 21:45:00,79.2,74.3,29.80,WNW,290,2.0,5.0,85,0.00,,---,0.00,VWS V14.01,2013-07-25 01:45:00,
2013-07-24 21:48:00,79.3,74.4,29.80,WNW,290,2.0,5.0,85,0.00,,---,0.00,VWS V14.01,2013-07-25 01:48:00,
2013-07-24 21:50:00,79.3,74.4,29.79,WNW,290,2.0,4.0,85,0.00,,---,0.00,VWS V14.01,2013-07-25 01:50:00,
2013-07-24 21:53:00,79.3,74.4,29.79,WNW,290,2.0,4.0,85,0.00,,---,0.00,VWS V14.01,2013-07-25 01:53:00,
2013-07-24 21:55:00,79.4,74.2,29.79,WNW,290,0.0,2.0,84,0.00,,---,0.00,VWS V15.00,2013-07-25 01:55:00,
2013-07-24 21:58:00,79.3,74.4,29.79,WNW,290,0.0,2.0,85,0.00,,---,0.00,VWS V14.01,2013-07-25 01:58:00,
2013-07-24 22:00:00,79.3,74.8,29.79,WNW,290,3.0,4.0,86,0.00,,---,0.00,VWS V14.01,2013-07-25 02:00:00,
2013-07-24 22:03:00,79.3,74.4,29.79,WNW,290,0.0,4.0,85,0.00,,---,0.00,VWS V14.01,2013-07-25 02:03:00,
2013-07-24 22:05:00,79.3,74.4,29.80,WNW,290,0.0,3.0,85,0.00,,---,0.00,VWS V14.01,2013-07-25 02:05:00,
2013-07-24 22:08:00,79.3,74.4,29.80,WNW,290,3.0,3.0,85,0.00,,---,0.00,VWS V14.01,2013-07-25 02:08:00,
2013-07-24 22:10:00,79.3,74.4,29.79,WNW,290,3.0,5.0,85,0.00,,---,0.00,VWS V14.01,2013-07-25 02:10:00,
2013-07-24 22:13:00,79.3,74.4,29.79,WNW,290,2.0,4.0,85,0.00,,---,0.00,VWS V14.01,2013-07-25 02:13:00,
2013-07-24 22:15:00,79.3,74.4,29.79,WNW,290,3.0,3.0,85,0.00,,---,0.00,VWS V14.01,2013-07-25 02:15:00,
2013-07-24 22:18:00,79.3,74.4,29.79,WNW,290,4.0,5.0,85,0.00,,---,0.00,VWS V14.01,2013-07-25 02:18:00,
2013-07-24 22:20:00,79.3,74.1,29.80,WNW,290,2.0,5.0,84,0.00,,---,0.00,VWS V14.01,2013-07-25 02:20:00,
2013-07-24 22:23:00,79.3,74.1,29.79,WNW,290,2.0,4.0,84,0.00,,---,0.00,VWS V14.01,2013-07-25 02:23:00,
2013-07-24 22:25:00,79.4,74.5,29.80,WNW,290,1.0,3.0,85,0.00,,---,0.00,VWS V14.01,2013-07-25 02:25:00,
2013-07-24 22:28:00,79.4,74.5,29.80,WNW,290,0.0,2.0,85,0.00,,---,0.00,VWS V14.01,2013-07-25 02:28:00,
2013-07-24 22:30:00,79.4,74.5,29.79,WNW,290,1.0,4.0,85,0.00,,---,0.00,VWS V14.01,2013-07-25 02:30:00,
2013-07-24 22:33:00,79.4,74.5,29.80,WNW,290,0.0,2.0,85,0.00,,---,0.00,VWS V14.01,2013-07-25 02:33:00,
2013-07-24 22:35:00,79.4,74.5,29.79,WNW,290,0.0,3.0,85,0.00,,---,0.00,VWS V14.01,2013-07-25 02:35:00,
2013-07-24 22:38:00,79.4,74.5,29.80,WNW,290,1.0,3.0,85,0.00,,---,0.00,VWS V14.01,2013-07-25 02:38:00,
2013-07-24 22:40:00,79.3,74.4,29.80,WNW,290,2.0,3.0,85,0.00,,---,0.00,VWS V14.01,2013-07-25 02:40:00,
2013-07-24 22:43:00,79.3,74.4,29.80,WNW,290,2.0,6.0,85,0.00,,---,0.00,VWS V14.01,2013-07-25 02:43:00,
2013-07-24 22:45:00,79.2,74.3,29.79,WNW,290,2.0,3.0,85,0.00,,---,0.00,VWS V14.01,2013-07-25 02:45:00,
2013-07-24 22:48:00,79.2,74.3,29.79,WNW,290,2.0,2.0,85,0.00,,---,0.00,VWS V14.01,2013-07-25 02:48:00,
2013-07-24 22:50:00,79.2,74.3,29.79,WNW,290,0.0,0.0,85,0.00,,---,0.00,VWS V14.01,2013-07-25 02:50:00,
2013-07-24 22:53:00,79.2,74.3,29.79,WNW,290,0.0,0.0,85,0.00,,---,0.00,VWS V14.01,2013-07-25 02:53:00,
2013-07-24 22:55:00,79.2,74.3,29.79,WNW,290,0.0,0.0,85,0.00,,---,0.00,VWS V14.01,2013-07-25 02:55:00,
2013-07-24 22:58:00,79.2,74.3,29.79,WNW,290,0.0,0.0,85,0.00,,---,0.00,VWS V14.01,2013-07-25 02:58:00,
2013-07-24 23:00:00,79.1,74.2,29.79,WNW,290,0.0,0.0,85,0.00,,---,0.00,VWS V14.01,2013-07-25 03:00:00,
2013-07-24 23:03:00,79.1,74.6,29.79,WNW,290,0.0,0.0,86,0.00,,---,0.00,VWS V14.01,2013-07-25 03:03:00,
2013-07-24 23:05:00,79.2,74.7,29.79,WNW,290,0.0,0.0,86,0.00,,---,0.00,VWS V14.01,2013-07-25 03:05:00,
2013-07-24 23:08:00,79.2,74.7,29.79,WNW,290,0.0,0.0,86,0.00,,---,0.00,VWS V14.01,2013-07-25 03:08:00,
2013-07-24 23:10:00,79.1,74.6,29.79,WNW,290,0.0,0.0,86,0.00,,---,0.00,VWS V14.01,2013-07-25 03:10:00,
2013-07-24 23:13:00,79.2,74.7,29.79,WNW,290,0.0,0.0,86,0.00,,---,0.00,VWS V14.01,2013-07-25 03:13:00,
2013-07-24 23:15:00,79.1,74.6,29.79,WNW,290,0.0,0.0,86,0.00,,---,0.00,VWS V14.01,2013-07-25 03:15:00,
2013-07-24 23:18:00,79.1,74.6,29.79,WNW,290,0.0,0.0,86,0.00,,---,0.00,VWS V14.01,2013-07-25 03:18:00,
2013-07-24 23:20:00,79.1,74.6,29.79,WNW,290,0.0,0.0,86,0.00,,---,0.00,VWS V14.01,2013-07-25 03:20:00,
2013-07-24 23:24:00,79.1,74.6,29.79,WNW,290,0.0,0.0,86,0.00,,---,0.00,VWS V14.01,2013-07-25 03:24:00,
2013-07-24 23:25:00,79.1,74.6,29.79,WNW,290,0.0,0.0,86,0.00,,---,0.00,VWS V14.01,2013-07-25 03:25:00,
2013-07-24 23:29:00,79.1,74.6,29.79,WNW,290,0.0,0.0,86,0.00,,---,0.00,VWS V14.01,2013-07-25 03:29:00,
2013-07-24 23:30:00,79.1,74.6,29.79,WNW,290,0.0,0.0,86,0.00,,---,0.00,VWS V14.01,2013-07-25 03:30:00,
2013-07-24 23:34:00,79.1,74.9,29.79,WNW,290,0.0,0.0,87,0.00,,---,0.00,VWS V14.01,2013-07-25 03:34:00,
2013-07-24 23:35:00,79.1,74.9,29.79,WNW,290,0.0,0.0,87,0.00,,---,0.00,VWS V14.01,2013-07-25 03:35:00,
2013-07-24 23:39:00,79.0,74.8,29.79,WNW,290,0.0,0.0,87,0.00,,---,0.00,VWS V14.01,2013-07-25 03:39:00,
2013-07-24 23:40:00,78.9,74.7,29.78,WNW,290,0.0,0.0,87,0.00,,---,0.00,VWS V14.01,2013-07-25 03:40:00,
2013-07-24 23:44:00,78.9,74.7,29.79,WNW,290,0.0,0.0,87,0.00,,---,0.00,VWS V14.01,2013-07-25 03:44:00,
2013-07-24 23:45:00,78.8,74.6,29.78,WNW,290,0.0,0.0,87,0.00,,---,0.00,VWS V14.01,2013-07-25 03:45:00,
2013-07-24 23:49:00,78.8,74.6,29.79,WNW,290,0.0,0.0,87,0.00,,---,0.00,VWS V14.01,2013-07-25 03:49:00,
2013-07-24 23:50:00,78.7,74.5,29.78,WNW,290,0.0,0.0,87,0.00,,---,0.00,VWS V14.01,2013-07-25 03:50:00,
2013-07-24 23:55:00,78.7,74.5,29.78,WNW,290,0.0,0.0,87,0.00,,---,0.00,VWS V14.01,2013-07-25 03:55:00,